Home   Weather   Fetsund   Past weeks

Flag for Norway Past Weather in Fetsund, Norway — Yesterday and Last 2 Weeks

39 °F


Feels Like: 34 °F
Forecast: 37 / 42 °F
Wind: 6 mph from Northeast

Location: Oslo-Blindern

Current Time: Oct 22, 2016 at 3:38:14 PM

Latest Report: Oct 22, 2016 at 2:00 PM

Visibility: 47 mi

Pressure: 30.37 "Hg

Humidity: 73%

Dew Point: 31 °F

Location of FetsundLocation

Past Weather in Fetsund — Graph


Fetsund Temperature Yesterday

Maximum temperature yesterday: 42 °F (at 12:00 AM)
Minimum temperature yesterday: 41 °F (at 8:00 AM)
Average temperature yesterday: 41 °F

High & Low Weather Summary for the Past Weeks

High58 °F (Oct 7, 4:00 PM)97% (Oct 18, 5:00 AM)30.63 "Hg (Oct 18, 5:00 AM)
Low32 °F (Oct 14, 10:00 AM)49% (Oct 7, 3:00 PM)30.13 "Hg (Oct 18, 5:00 PM)
Average42 °F76%30.44 "Hg
* Reported Oct 7 2:00 PM — Oct 22 2:00 PM, Fetsund, Weather by CustomWeather, © 2016

Note: Actual official high and low records may vary slightly from our data, if they occured in-between our weather recording intervals... More about our weather records


Fetsund Weather History for the Previous 24 Hours

Scroll right to see more
Time TempWeatherWind HumidityBarometerVisibility
2:00 PM
Sat, Oct 22
39 °FChilly.6 mph73%30.37 "Hg18 mi
1:00 PM38 °FChilly.6 mph75%30.38 "Hg22 mi
12:00 PM39 °FChilly.6 mph71%30.38 "Hg22 mi
11:00 AM39 °FOvercast.6 mph73%30.38 "Hg43 mi
10:00 AM39 °FChilly.6 mph75%30.38 "Hg25 mi
9:00 AM39 °FChilly.6 mph76%30.38 "HgN/A
8:00 AM40 °FChilly.6 mph72%30.37 "Hg25 mi
7:00 AM40 °FQuite cool.7 mph70%30.36 "HgN/A
6:00 AM40 °FQuite cool.6 mph74%30.36 "Hg28 mi
5:00 AM41 °FQuite cool.7 mph76%30.36 "Hg28 mi
4:00 AM41 °FQuite cool.7 mph76%30.36 "HgN/A
3:00 AM41 °FQuite cool.7 mph76%30.37 "Hg19 mi
2:00 AM41 °FQuite cool.5 mph76%30.38 "Hg19 mi
1:00 AM41 °FQuite cool.7 mph77%30.38 "Hg16 mi
12:00 AM41 °FQuite cool.6 mph78%30.38 "Hg17 mi
11:00 PM
Fri, Oct 21
41 °FRain showers. Overcast.6 mph80%30.38 "Hg15 mi
10:00 PM41 °FDrizzle. Overcast.6 mph77%30.38 "Hg16 mi
9:00 PM41 °FLight rain. Overcast.7 mph78%30.37 "Hg14 mi
8:00 PM42 °FLight rain. Overcast.6 mph75%30.37 "Hg19 mi
7:00 PM42 °FDrizzle. Overcast.6 mph75%30.37 "Hg22 mi
6:00 PM42 °FQuite cool.6 mph75%30.35 "Hg19 mi
5:00 PM42 °FLight rain. Overcast.5 mph77%30.35 "Hg19 mi
4:00 PM42 °FQuite cool.6 mph75%30.34 "Hg19 mi
3:00 PM42 °FDrizzle. Cloudy.6 mph76%30.35 "Hg19 mi
Weather by CustomWeather, © 2016

See weather overviewHow to use our weather pages